Skip Page Navigation
NASA JPL Caltech
NASA Logo - Jet Propulsion Laboratory + View the NASA Portal
+ Center for Near-Earth Object Studies
JPL Home Earth Solar System Stars & Galaxies Technology
JPL Solar System Dynamics
BODIES ORBITS EPHEMERIDES TOOLS PHYSICAL DATA DISCOVERY FAQ SITE MAP
JPL Small-Body Database Browser
Search: [ help ]  
183826 (2004 BF92)
Classification: Main-belt Asteroid          SPK-ID: 2183826
Ephemeris | Orbit Diagram | Orbital Elements | Mission Design | Physical Parameters | Discovery Circumstances ]

[ show orbit diagram ]
Orbital Elements at Epoch 2459000.5 (2020-May-31.0) TDB
Reference: JPL 14 (heliocentric ecliptic J2000)
 Element Value Uncertainty (1-sigma)   Units 
e .08502241064033883 4.2591e-08  
a 2.345662437031244 1.2908e-08 au
q 2.146228562086355 1.0707e-07 au
i 5.623216619345831 4.569e-06 deg
node 306.1265201833786 4.9781e-05 deg
peri 123.1789439784224 6.5299e-05 deg
M 257.0594859532073 4.3719e-05 deg
tp 2459375.715290853028
(2021-Jun-10.21529085)
0.00016114 TDB
period 1312.189918205471
3.59
1.0831e-05
2.965e-08
d
yr
n .2743505303655511 2.2646e-09 deg/d
Q 2.545096311976132 1.4005e-08 au
  Orbit Determination Parameters
   # obs. used (total)      474  
   data-arc span      6638 days (18.17 yr)  
   first obs. used      2002-08-18  
   last obs. used      2020-10-20  
   planetary ephem.      DE431  
   SB-pert. ephem.      SB431-N16  
   condition code      0  
   norm. resid. RMS      .56178  
   source      ORB  
   producer      Otto Matic  
   solution date      2020-Nov-12 08:31:00  

Additional Information
 Earth MOID = 1.16676 au 
 Jupiter MOID = 2.64904 au 
 T_jup = 3.550 
[ show covariance matrix ]

Ephemeris | Orbit Diagram | Orbital Elements | Mission Design | Physical Parameters | Discovery Circumstances ]

Physical Parameter Table
Parameter Symbol Value Units Sigma Reference Notes
absolute magnitude H 16.3   n/a MPO436908  

183826 (2004 BF92)          Discovered 2004-Jan-26 by LONEOS at Anderson Mesa
Reference: 20080420/Numbers.arcLast Updated: 2008-04-23

Alternate Designations
 2004 BF92 = 2002 RE170 
Ephemeris | Orbit Diagram | Orbital Elements | Mission Design | Physical Parameters | Discovery Circumstances ]
ABOUT SSD CREDITS/AWARDS PRIVACY/COPYRIGHT GLOSSARY LINKS
FirstGov 2020-Dec-05 13:10 UT
(server date/time)  
NASA Home Page
Site Manager:   Ryan S. Park
Webmaster  Alan B. Chamberlin